AIC312 VIDP-RKSI

Flight info

Callsign AIC312
Flight time N/A
Altitude 39000
Route LKN A201 LSO/N0485F410 A599 LINSO/K0898S1250 A599 SGM A581 IDPOG W56 VADMO W4 IKEKA A591 AGAVO/N0481F410 Y644 REBIT REBIT2H
Aircraft A359/H-SDE2E3GHIJ3J4J5LM1ORWXY/LB1D1

Departure

Time N/A
Airport Indira Gandhi International Airport (VIDP)

Arrival

Time 2026-05-01 13:23
Airport Incheon International Airport (RKSI)
Time Latitude Longitude Altitude Speed Heading
2026-05-01 09:24 23.34025 94.57828 38829 ft 559 kts 98°
2026-05-01 09:25 23.32289 94.74631 38832 ft 558 kts 98°
2026-05-01 09:26 23.30976 94.87210 38831 ft 557 kts 98°
2026-05-01 09:26 23.29658 94.99748 38828 ft 555 kts 99°
2026-05-01 09:27 23.28335 95.12244 38817 ft 554 kts 99°
2026-05-01 09:28 23.27448 95.20561 38810 ft 553 kts 99°
2026-05-01 09:28 23.26564 95.28808 38809 ft 552 kts 99°
2026-05-01 09:29 23.25223 95.41250 38805 ft 551 kts 99°
2026-05-01 09:30 23.23875 95.53653 38803 ft 551 kts 99°
2026-05-01 09:30 23.22520 95.66039 38796 ft 550 kts 99°
2026-05-01 09:31 23.21611 95.74294 38791 ft 549 kts 99°
2026-05-01 09:32 23.20243 95.86642 38794 ft 548 kts 99°
2026-05-01 09:32 23.18867 95.98970 38791 ft 547 kts 99°
2026-05-01 09:33 23.17946 96.07176 38789 ft 547 kts 99°
2026-05-01 09:34 23.16714 96.18098 38783 ft 546 kts 99°
2026-05-01 09:34 23.15319 96.30372 38796 ft 545 kts 99°
2026-05-01 09:35 23.13917 96.42622 38801 ft 545 kts 99°
2026-05-01 09:36 23.12978 96.50786 38812 ft 545 kts 98°
2026-05-01 09:36 23.12034 96.58953 38815 ft 545 kts 98°
2026-05-01 09:37 23.11087 96.67105 38813 ft 545 kts 98°
2026-05-01 09:37 23.09656 96.79354 38828 ft 545 kts 98°
2026-05-01 09:38 23.08215 96.91611 38834 ft 546 kts 98°
2026-05-01 09:39 23.06763 97.03876 38836 ft 546 kts 98°
2026-05-01 09:39 23.05787 97.12058 38837 ft 548 kts 98°
2026-05-01 09:40 23.04315 97.24370 38828 ft 548 kts 98°
2026-05-01 09:41 23.03327 97.32580 38822 ft 549 kts 98°
2026-05-01 09:41 23.01841 97.44860 38808 ft 550 kts 98°
2026-05-01 09:42 23.00832 97.53144 38798 ft 550 kts 98°
2026-05-01 09:43 22.98834 97.69560 38778 ft 551 kts 97°
2026-05-01 09:43 22.98695 97.73715 38780 ft 551 kts 86°
2026-05-01 09:43 22.99179 97.77825 38785 ft 549 kts 75°
2026-05-01 09:44 23.02826 97.89549 38795 ft 546 kts 66°
2026-05-01 09:45 23.05536 97.97255 38793 ft 546 kts 66°
2026-05-01 09:45 23.09544 98.08835 38800 ft 546 kts 67°
2026-05-01 09:46 23.12182 98.16576 38803 ft 547 kts 67°
2026-05-01 09:46 23.14817 98.24337 38803 ft 547 kts 67°
2026-05-01 09:47 23.17448 98.32096 38805 ft 548 kts 67°
2026-05-01 09:47 23.20077 98.39859 38808 ft 547 kts 67°
2026-05-01 09:48 23.22702 98.47620 38806 ft 548 kts 67°
2026-05-01 09:48 23.25327 98.55396 38802 ft 547 kts 67°
2026-05-01 09:49 23.27944 98.63164 38805 ft 547 kts 67°
2026-05-01 09:49 23.30558 98.70933 38807 ft 547 kts 67°
2026-05-01 09:50 23.33167 98.78701 38809 ft 546 kts 67°
2026-05-01 09:50 23.35769 98.86465 38816 ft 547 kts 67°
2026-05-01 09:51 23.38369 98.94254 38820 ft 547 kts 68°
2026-05-01 09:51 23.40840 99.02097 38824 ft 548 kts 69°
2026-05-01 09:52 23.43254 99.09956 38832 ft 547 kts 69°
2026-05-01 09:52 23.45680 99.17803 38840 ft 547 kts 69°
2026-05-01 09:53 23.48123 99.25655 38845 ft 547 kts 69°
2026-05-01 09:53 23.50571 99.33510 38843 ft 546 kts 69°
2026-05-01 09:54 23.53211 99.41247 38847 ft 543 kts 60°
2026-05-01 09:54 23.56787 99.48482 38847 ft 542 kts 57°
2026-05-01 09:55 23.60518 99.55611 38851 ft 541 kts 57°
2026-05-01 09:55 23.64236 99.62679 38851 ft 541 kts 57°
2026-05-01 09:56 23.67960 99.69804 38849 ft 540 kts 57°
2026-05-01 09:56 23.71667 99.76932 38854 ft 540 kts 57°
2026-05-01 09:57 23.75371 99.84064 38847 ft 541 kts 57°
2026-05-01 09:57 23.79070 99.91206 38865 ft 541 kts 57°
2026-05-01 09:58 23.82772 99.98353 38842 ft 541 kts 57°
2026-05-01 09:58 23.86470 100.05504 38844 ft 542 kts 57°
2026-05-01 09:59 23.90176 100.12684 38837 ft 543 kts 57°
2026-05-01 09:59 23.93878 100.19871 38829 ft 543 kts 57°
2026-05-01 10:00 23.97580 100.27068 38830 ft 543 kts 57°
2026-05-01 10:00 24.01282 100.34276 38829 ft 543 kts 57°
2026-05-01 10:01 24.04984 100.41472 38822 ft 543 kts 57°
2026-05-01 10:01 24.08674 100.48678 38825 ft 543 kts 57°
2026-05-01 10:02 24.12368 100.55904 38825 ft 544 kts 57°
2026-05-01 10:02 24.16022 100.63140 38816 ft 543 kts 58°
2026-05-01 10:03 24.19650 100.70405 38814 ft 543 kts 58°
2026-05-01 10:03 24.23270 100.77655 38804 ft 542 kts 58°
2026-05-01 10:04 24.26887 100.84897 38822 ft 542 kts 58°
2026-05-01 10:04 24.30503 100.92143 38826 ft 541 kts 58°
2026-05-01 10:05 24.34107 100.99372 38824 ft 540 kts 58°
2026-05-01 10:05 24.37709 101.06609 38823 ft 540 kts 58°
2026-05-01 10:06 24.41302 101.13844 38815 ft 540 kts 58°
2026-05-01 10:06 24.44887 101.21069 38816 ft 539 kts 58°
2026-05-01 10:07 24.48459 101.28284 38815 ft 538 kts 58°
2026-05-01 10:07 24.52005 101.35451 38911 ft 538 kts 59°
2026-05-01 10:08 24.57341 101.46261 38907 ft 536 kts 59°
2026-05-01 10:09 24.60894 101.53470 38908 ft 536 kts 59°
2026-05-01 10:09 24.64426 101.60671 38918 ft 535 kts 59°
2026-05-01 10:10 24.67913 101.67893 38923 ft 534 kts 59°
2026-05-01 10:10 24.73116 101.78708 38936 ft 533 kts 59°
2026-05-01 10:11 24.76582 101.85905 38949 ft 532 kts 60°
2026-05-01 10:11 24.80041 101.93093 38952 ft 531 kts 60°
2026-05-01 10:12 24.82910 101.99065 38962 ft 530 kts 60°
2026-05-01 10:13 24.88644 102.11027 38978 ft 528 kts 60°
2026-05-01 10:13 24.92062 102.18169 38984 ft 527 kts 60°
2026-05-01 10:14 24.97184 102.28894 38997 ft 527 kts 60°
2026-05-01 10:14 25.00589 102.36038 39006 ft 527 kts 60°
2026-05-01 10:15 25.03415 102.41979 39007 ft 527 kts 60°
2026-05-01 10:15 25.06828 102.49142 39019 ft 527 kts 60°
2026-05-01 10:16 25.09510 102.53581 39028 ft 524 kts 49°
2026-05-01 10:16 25.11831 102.56743 39029 ft 523 kts 48°
2026-05-01 10:17 25.18112 102.64866 39026 ft 523 kts 47°
2026-05-01 10:17 25.26020 102.75003 39045 ft 524 kts 47°
2026-05-01 10:18 25.33131 102.84195 39048 ft 525 kts 47°
2026-05-01 10:19 25.37868 102.90334 39037 ft 525 kts 47°
2026-05-01 10:19 25.41589 102.95727 39034 ft 527 kts 53°
2026-05-01 10:20 25.48363 103.06952 39021 ft 528 kts 54°
2026-05-01 10:20 25.51738 103.12638 39019 ft 528 kts 54°
2026-05-01 10:21 25.57802 103.22829 39008 ft 528 kts 54°
2026-05-01 10:22 25.63856 103.32999 38993 ft 528 kts 54°
2026-05-01 10:23 25.69925 103.43217 38979 ft 528 kts 54°
2026-05-01 10:23 25.75966 103.53420 38963 ft 528 kts 54°
2026-05-01 10:24 25.84020 103.67048 38945 ft 528 kts 54°
2026-05-01 10:25 25.92032 103.80645 38916 ft 528 kts 53°
2026-05-01 10:26 25.96042 103.87465 38907 ft 527 kts 53°
2026-05-01 10:27 26.04125 104.01067 38881 ft 526 kts 53°
2026-05-01 10:28 26.10210 104.11231 38865 ft 526 kts 53°
2026-05-01 10:28 26.16271 104.21410 38843 ft 526 kts 53°
2026-05-01 10:29 26.22328 104.31610 38816 ft 525 kts 53°
2026-05-01 10:30 26.30359 104.45175 38789 ft 524 kts 53°
2026-05-01 10:31 26.38369 104.58735 38761 ft 523 kts 53°
2026-05-01 10:32 26.44353 104.68898 38746 ft 523 kts 53°
2026-05-01 10:33 26.52332 104.82476 38720 ft 522 kts 53°
2026-05-01 10:34 26.58299 104.92660 38702 ft 523 kts 53°
2026-05-01 10:34 26.62313 104.99508 38698 ft 532 kts 54°
2026-05-01 10:35 26.65899 105.06852 38686 ft 543 kts 63°
2026-05-01 10:35 26.67490 105.10685 38684 ft 543 kts 64°
2026-05-01 10:35 26.70577 105.18385 38694 ft 543 kts 64°
2026-05-01 10:36 26.75153 105.29886 38695 ft 542 kts 64°
2026-05-01 10:37 26.78223 105.37573 38702 ft 541 kts 64°
2026-05-01 10:37 26.82831 105.49111 38710 ft 542 kts 64°
2026-05-01 10:38 26.85899 105.56814 38714 ft 542 kts 64°
2026-05-01 10:38 26.88965 105.64527 38725 ft 542 kts 64°
2026-05-01 10:39 26.92027 105.72240 38729 ft 543 kts 64°
2026-05-01 10:39 26.95093 105.79977 38740 ft 543 kts 64°
2026-05-01 10:40 26.98155 105.87726 38727 ft 543 kts 64°
2026-05-01 10:40 27.01209 105.95466 38737 ft 543 kts 64°
2026-05-01 10:41 27.04244 106.03175 38741 ft 543 kts 64°
2026-05-01 10:42 27.09302 106.14573 38747 ft 541 kts 59°
2026-05-01 10:42 27.12806 106.21987 38740 ft 541 kts 59°
2026-05-01 10:43 27.16266 106.29469 38744 ft 539 kts 60°
2026-05-01 10:43 27.19675 106.36947 38742 ft 537 kts 60°
2026-05-01 10:44 27.22509 106.43210 38738 ft 536 kts 60°
2026-05-01 10:44 27.26433 106.51863 38743 ft 534 kts 60°
2026-05-01 10:45 27.29258 106.58095 38762 ft 533 kts 60°
2026-05-01 10:45 27.33156 106.66711 38748 ft 532 kts 60°
2026-05-01 10:46 27.36501 106.74122 38751 ft 531 kts 60°
2026-05-01 10:46 27.39832 106.81520 38749 ft 530 kts 60°
2026-05-01 10:47 27.42606 106.87728 38772 ft 529 kts 61°
2026-05-01 10:47 27.46446 106.96336 38770 ft 528 kts 61°
2026-05-01 10:48 27.49746 107.03702 38771 ft 527 kts 60°
2026-05-01 10:48 27.53080 107.11064 38770 ft 527 kts 60°
2026-05-01 10:49 27.56404 107.18407 38757 ft 526 kts 60°
2026-05-01 10:49 27.59716 107.25756 38775 ft 525 kts 60°
2026-05-01 10:50 27.63024 107.33096 38768 ft 525 kts 60°
2026-05-01 10:50 27.66322 107.40427 38777 ft 524 kts 60°
2026-05-01 10:51 27.69617 107.47765 38768 ft 524 kts 61°
2026-05-01 10:51 27.72904 107.55102 38764 ft 524 kts 60°
2026-05-01 10:52 27.76184 107.62437 38774 ft 523 kts 60°
2026-05-01 10:52 27.79454 107.69765 38770 ft 523 kts 60°
2026-05-01 10:53 27.82718 107.77092 38766 ft 523 kts 60°
2026-05-01 10:53 27.86018 107.84414 38766 ft 523 kts 60°
2026-05-01 10:54 27.89371 107.91701 38774 ft 523 kts 59°
2026-05-01 10:54 27.92732 107.99028 38765 ft 524 kts 60°
2026-05-01 10:55 27.96075 108.06361 38762 ft 524 kts 60°
2026-05-01 10:55 27.99387 108.13652 38767 ft 525 kts 60°
2026-05-01 10:56 28.02740 108.21046 38762 ft 525 kts 60°
2026-05-01 10:56 28.06042 108.28342 38768 ft 525 kts 60°
2026-05-01 10:57 28.09372 108.35713 38771 ft 525 kts 60°
2026-05-01 10:57 28.12694 108.43080 38773 ft 526 kts 60°
2026-05-01 10:58 28.16013 108.50453 38776 ft 526 kts 60°
2026-05-01 10:58 28.19338 108.57849 38776 ft 526 kts 60°
2026-05-01 10:59 28.22654 108.65233 38779 ft 527 kts 60°
2026-05-01 10:59 28.25983 108.72670 38782 ft 527 kts 61°
2026-05-01 11:00 28.29300 108.80092 38781 ft 528 kts 61°
2026-05-01 11:00 28.32623 108.87545 38783 ft 529 kts 61°
2026-05-01 11:01 28.35938 108.94991 38782 ft 529 kts 61°
2026-05-01 11:01 28.39261 109.02469 38789 ft 530 kts 61°
2026-05-01 11:02 28.42019 109.08682 38786 ft 531 kts 61°
2026-05-01 11:02 28.45901 109.17456 38791 ft 531 kts 61°
2026-05-01 11:03 28.49209 109.24966 38786 ft 532 kts 61°
2026-05-01 11:03 28.52515 109.32478 38793 ft 532 kts 61°
2026-05-01 11:04 28.55825 109.40014 38797 ft 532 kts 62°
2026-05-01 11:04 28.58912 109.47680 38800 ft 534 kts 66°
2026-05-01 11:05 28.61195 109.54212 38804 ft 535 kts 67°
2026-05-01 11:05 28.63892 109.62115 38801 ft 536 kts 68°
2026-05-01 11:06 28.66596 109.70018 38802 ft 536 kts 67°
2026-05-01 11:06 28.69877 109.79144 38810 ft 536 kts 66°
2026-05-01 11:07 28.73673 109.89649 38809 ft 536 kts 66°
2026-05-01 11:07 28.76491 109.97521 38816 ft 537 kts 67°
2026-05-01 11:08 28.79296 110.05398 38817 ft 536 kts 67°
2026-05-01 11:09 28.83481 110.17184 38825 ft 536 kts 67°
2026-05-01 11:09 28.86277 110.25077 38830 ft 537 kts 67°
2026-05-01 11:10 28.90460 110.36916 38821 ft 536 kts 67°
2026-05-01 11:10 28.93249 110.44829 38835 ft 538 kts 67°
2026-05-01 11:11 28.96044 110.52776 38843 ft 539 kts 67°
2026-05-01 11:11 28.97986 110.58306 38844 ft 540 kts 67°
2026-05-01 11:12 29.00436 110.65296 38844 ft 541 kts 67°
2026-05-01 11:12 29.03231 110.73289 38850 ft 543 kts 67°
2026-05-01 11:13 29.06053 110.81300 38847 ft 544 kts 67°
2026-05-01 11:13 29.08907 110.89321 38848 ft 544 kts 67°
2026-05-01 11:14 29.11749 110.97339 38846 ft 545 kts 67°
2026-05-01 11:14 29.14592 111.05394 38851 ft 545 kts 67°
2026-05-01 11:15 29.17424 111.13447 38847 ft 546 kts 67°
2026-05-01 11:15 29.20251 111.21502 38849 ft 545 kts 67°
2026-05-01 11:16 29.23051 111.29505 38848 ft 545 kts 67°
2026-05-01 11:16 29.25864 111.37558 38846 ft 545 kts 67°
2026-05-01 11:17 29.28671 111.45613 38842 ft 544 kts 67°
2026-05-01 11:17 29.31469 111.53660 38843 ft 543 kts 67°
2026-05-01 11:18 29.34265 111.61709 38842 ft 543 kts 68°
2026-05-01 11:18 29.35917 111.65585 38846 ft 541 kts 57°
2026-05-01 11:18 29.37882 111.69272 38843 ft 540 kts 56°
2026-05-01 11:19 29.41964 111.76494 38842 ft 540 kts 54°
2026-05-01 11:19 29.46104 111.83672 38853 ft 539 kts 54°
2026-05-01 11:20 29.50229 111.90855 38852 ft 539 kts 54°
2026-05-01 11:20 29.54343 111.98065 38857 ft 539 kts 54°
2026-05-01 11:21 29.58444 112.05277 38860 ft 539 kts 54°
2026-05-01 11:21 29.62544 112.12500 38859 ft 539 kts 54°
2026-05-01 11:22 29.66638 112.19724 38860 ft 539 kts 54°
2026-05-01 11:22 29.70731 112.26959 38864 ft 539 kts 54°
2026-05-01 11:23 29.74812 112.34191 38863 ft 539 kts 55°
2026-05-01 11:23 29.78878 112.41445 38864 ft 539 kts 55°
2026-05-01 11:24 29.82947 112.48719 38859 ft 540 kts 55°
2026-05-01 11:25 29.89039 112.59633 38864 ft 540 kts 55°
2026-05-01 11:25 29.95127 112.70567 38849 ft 541 kts 55°
2026-05-01 11:26 30.01218 112.81536 38854 ft 541 kts 55°
2026-05-01 11:27 30.05243 112.88800 38856 ft 541 kts 55°
2026-05-01 11:27 30.09294 112.96126 38856 ft 541 kts 55°
2026-05-01 11:28 30.13344 113.03462 38860 ft 542 kts 55°
2026-05-01 11:28 30.17393 113.10810 38854 ft 542 kts 55°
2026-05-01 11:29 30.23470 113.21853 38858 ft 543 kts 55°
2026-05-01 11:30 30.29647 113.32837 38855 ft 543 kts 54°
2026-05-01 11:30 30.33769 113.40168 38857 ft 544 kts 54°
2026-05-01 11:31 30.37888 113.47531 38852 ft 545 kts 54°
2026-05-01 11:31 30.42002 113.54909 38854 ft 545 kts 54°
2026-05-01 11:32 30.46109 113.62289 38854 ft 546 kts 54°
2026-05-01 11:32 30.50222 113.69690 38855 ft 546 kts 54°
2026-05-01 11:33 30.54335 113.77107 38854 ft 546 kts 54°
2026-05-01 11:33 30.58415 113.84478 38854 ft 546 kts 54°
2026-05-01 11:34 30.62879 113.91551 38853 ft 540 kts 41°
2026-05-01 11:34 30.65679 113.94402 38851 ft 531 kts 30°
2026-05-01 11:34 30.68811 113.96598 38857 ft 522 kts 19°
2026-05-01 11:35 30.75372 114.00174 38858 ft 522 kts 19°
2026-05-01 11:35 30.81901 114.03861 38857 ft 521 kts 19°
2026-05-01 11:36 30.88463 114.07440 38858 ft 520 kts 18°
2026-05-01 11:36 30.95019 114.10974 38857 ft 519 kts 18°
2026-05-01 11:37 31.01557 114.14512 38858 ft 518 kts 18°
2026-05-01 11:37 31.08088 114.18063 38859 ft 517 kts 18°
2026-05-01 11:38 31.14603 114.21605 38862 ft 517 kts 18°
2026-05-01 11:38 31.21126 114.25155 38859 ft 516 kts 18°
2026-05-01 11:39 31.27638 114.28707 38863 ft 516 kts 18°
2026-05-01 11:39 31.34198 114.32011 38864 ft 508 kts 10°
2026-05-01 11:39 31.37602 114.32950 38866 ft 497 kts
2026-05-01 11:40 31.41019 114.33354 38867 ft 492 kts 356°
2026-05-01 11:40 31.47826 114.33657 38869 ft 489 kts 353°
2026-05-01 11:41 31.54637 114.33781 38868 ft 489 kts 353°
2026-05-01 11:41 31.60302 114.33902 38867 ft 490 kts 353°
2026-05-01 11:42 31.68271 114.34120 38864 ft 490 kts 354°
2026-05-01 11:42 31.75052 114.34331 38864 ft 490 kts 354°
2026-05-01 11:43 31.81867 114.34545 38865 ft 490 kts 354°
2026-05-01 11:43 31.88691 114.34756 38862 ft 490 kts 354°
2026-05-01 11:44 31.98929 114.35054 38863 ft 490 kts 354°
2026-05-01 11:44 32.05745 114.35258 38861 ft 490 kts 354°
2026-05-01 11:45 32.12556 114.35464 38862 ft 490 kts 354°
2026-05-01 11:45 32.19368 114.35671 38855 ft 490 kts 354°
2026-05-01 11:46 32.26182 114.35879 38856 ft 490 kts 354°
2026-05-01 11:46 32.33009 114.36362 38855 ft 493 kts 357°
2026-05-01 11:47 32.39851 114.37079 38856 ft 493 kts 357°
2026-05-01 11:47 32.46680 114.37768 38854 ft 493 kts 357°
2026-05-01 11:48 32.53470 114.38405 38856 ft 492 kts 356°
2026-05-01 11:48 32.60351 114.39033 38856 ft 493 kts 356°
2026-05-01 11:49 32.67186 114.39661 38856 ft 493 kts 356°
2026-05-01 11:49 32.74026 114.40298 38855 ft 493 kts 356°
2026-05-01 11:50 32.80863 114.40932 38856 ft 494 kts 356°
2026-05-01 11:50 32.87726 114.41570 38855 ft 494 kts 356°
2026-05-01 11:51 32.94586 114.42211 38856 ft 495 kts 356°
2026-05-01 11:51 33.01406 114.42849 38856 ft 495 kts 356°
2026-05-01 11:52 33.08264 114.43493 38855 ft 495 kts 356°
2026-05-01 11:52 33.15141 114.44139 38856 ft 495 kts 356°
2026-05-01 11:53 33.22011 114.44785 38858 ft 496 kts 356°
2026-05-01 11:53 33.28882 114.45433 38863 ft 495 kts 356°
2026-05-01 11:54 33.35751 114.46086 38861 ft 495 kts 356°
2026-05-01 11:54 33.42631 114.46729 38864 ft 495 kts 356°
2026-05-01 11:55 33.48395 114.47269 38854 ft 496 kts 356°
2026-05-01 11:55 33.55266 114.47916 38862 ft 495 kts 356°
2026-05-01 11:56 33.62089 114.48562 38864 ft 495 kts 356°
2026-05-01 11:56 33.68943 114.49215 38866 ft 494 kts 356°
2026-05-01 11:57 33.75805 114.49850 38862 ft 494 kts 356°
2026-05-01 11:57 33.82660 114.50486 38863 ft 494 kts 356°
2026-05-01 11:58 33.89525 114.51138 38865 ft 495 kts 356°
2026-05-01 11:59 33.99828 114.52104 38864 ft 495 kts 356°
2026-05-01 11:59 34.06703 114.52752 38869 ft 495 kts 356°
2026-05-01 12:00 34.17012 114.53729 38867 ft 495 kts 356°
2026-05-01 12:01 34.27297 114.54773 38876 ft 497 kts 359°
2026-05-01 12:01 34.34109 114.56806 38878 ft 515 kts 16°
2026-05-01 12:02 34.40432 114.61085 38876 ft 525 kts 27°
2026-05-01 12:02 34.46461 114.66106 38881 ft 527 kts 29°
2026-05-01 12:03 34.52450 114.71229 38885 ft 526 kts 29°
2026-05-01 12:03 34.58448 114.76291 38885 ft 526 kts 28°
2026-05-01 12:04 34.64369 114.81552 38889 ft 531 kts 35°
2026-05-01 12:04 34.69267 114.88292 38887 ft 544 kts 54°
2026-05-01 12:05 34.72469 114.96671 38892 ft 549 kts 67°
2026-05-01 12:05 34.76250 115.09845 38898 ft 550 kts 69°
2026-05-01 12:06 34.78732 115.18639 38901 ft 550 kts 68°
2026-05-01 12:06 34.81258 115.27408 38899 ft 549 kts 68°
2026-05-01 12:07 34.83796 115.36159 38900 ft 548 kts 68°
2026-05-01 12:07 34.86328 115.44910 38901 ft 548 kts 68°
2026-05-01 12:08 34.88851 115.53665 38905 ft 548 kts 68°
2026-05-01 12:08 34.91366 115.62425 38910 ft 547 kts 68°
2026-05-01 12:09 34.93871 115.71180 38912 ft 547 kts 68°
2026-05-01 12:09 34.96372 115.79948 38910 ft 547 kts 68°
2026-05-01 12:10 35.00112 115.93109 38918 ft 548 kts 68°
2026-05-01 12:11 35.03836 116.06277 38922 ft 547 kts 68°
2026-05-01 12:11 35.06310 116.15058 38924 ft 547 kts 68°
2026-05-01 12:12 35.08776 116.23840 38924 ft 546 kts 68°
2026-05-01 12:12 35.11231 116.32611 38924 ft 546 kts 68°
2026-05-01 12:13 35.13682 116.41396 38933 ft 546 kts 68°
2026-05-01 12:13 35.16121 116.50164 38938 ft 545 kts 68°
2026-05-01 12:14 35.18552 116.58933 38942 ft 544 kts 68°
2026-05-01 12:14 35.20971 116.67685 38941 ft 543 kts 68°
2026-05-01 12:15 35.23383 116.76439 38935 ft 543 kts 68°
2026-05-01 12:15 35.25770 116.85133 38942 ft 542 kts 68°
2026-05-01 12:16 35.28162 116.93869 38942 ft 542 kts 68°
2026-05-01 12:16 35.30549 117.02617 38946 ft 541 kts 68°
2026-05-01 12:17 35.32925 117.11353 38951 ft 541 kts 68°
2026-05-01 12:17 35.35294 117.20092 38950 ft 540 kts 68°
2026-05-01 12:18 35.37658 117.28838 38954 ft 540 kts 68°
2026-05-01 12:18 35.40011 117.37579 38957 ft 540 kts 68°
2026-05-01 12:19 35.42357 117.46315 38955 ft 540 kts 68°
2026-05-01 12:19 35.44699 117.55066 38959 ft 540 kts 68°
2026-05-01 12:20 35.47033 117.63817 38954 ft 540 kts 68°
2026-05-01 12:20 35.49364 117.72583 38957 ft 540 kts 68°
2026-05-01 12:21 35.51685 117.81348 38957 ft 540 kts 69°
2026-05-01 12:21 35.53995 117.90093 38960 ft 539 kts 69°
2026-05-01 12:22 35.56300 117.98852 38958 ft 539 kts 69°
2026-05-01 12:22 35.58602 118.07627 38955 ft 539 kts 69°
2026-05-01 12:23 35.60894 118.16392 38959 ft 539 kts 69°
2026-05-01 12:23 35.63184 118.25176 38959 ft 540 kts 69°
2026-05-01 12:24 35.65471 118.33980 38954 ft 540 kts 69°
2026-05-01 12:24 35.67751 118.42787 38950 ft 541 kts 69°
2026-05-01 12:25 35.71146 118.55961 38951 ft 542 kts 69°
2026-05-01 12:26 35.73418 118.64815 38944 ft 542 kts 69°
2026-05-01 12:26 35.76811 118.78095 38945 ft 543 kts 69°
2026-05-01 12:27 35.80200 118.91425 38956 ft 544 kts 69°
2026-05-01 12:28 35.83582 119.04794 38948 ft 545 kts 69°
2026-05-01 12:29 35.86953 119.18191 38938 ft 546 kts 69°
2026-05-01 12:29 35.90317 119.31631 38938 ft 547 kts 69°
2026-05-01 12:30 35.93662 119.45076 38936 ft 547 kts 69°
2026-05-01 12:31 35.95884 119.54044 38937 ft 547 kts 69°
2026-05-01 12:31 35.98103 119.63031 38938 ft 547 kts 69°
2026-05-01 12:32 36.00297 119.71946 38935 ft 546 kts 69°
2026-05-01 12:32 36.03615 119.85491 38937 ft 547 kts 69°
2026-05-01 12:33 36.05808 119.94484 38934 ft 547 kts 70°
2026-05-01 12:33 36.08000 120.03506 38941 ft 548 kts 70°
2026-05-01 12:34 36.10171 120.12473 38940 ft 549 kts 70°
2026-05-01 12:34 36.12352 120.21517 38940 ft 549 kts 70°
2026-05-01 12:35 36.14532 120.30585 38946 ft 550 kts 70°
2026-05-01 12:35 36.16706 120.39665 38945 ft 550 kts 70°
2026-05-01 12:36 36.18873 120.48749 38950 ft 551 kts 70°
2026-05-01 12:36 36.21041 120.57870 38955 ft 552 kts 70°
2026-05-01 12:37 36.23201 120.66991 38953 ft 552 kts 70°
2026-05-01 12:37 36.25355 120.76121 38959 ft 553 kts 70°
2026-05-01 12:38 36.27509 120.85290 38963 ft 554 kts 70°
2026-05-01 12:38 36.29293 120.92906 38967 ft 554 kts 70°
2026-05-01 12:39 36.31436 121.02090 38968 ft 555 kts 70°
2026-05-01 12:39 36.33919 121.12776 38966 ft 556 kts 70°
2026-05-01 12:40 36.36051 121.21994 38966 ft 556 kts 70°
2026-05-01 12:40 36.38177 121.31217 38971 ft 556 kts 70°
2026-05-01 12:41 36.40296 121.40449 38968 ft 556 kts 70°
2026-05-01 12:41 36.42408 121.49682 38970 ft 556 kts 69°
2026-05-01 12:42 36.44507 121.58897 38968 ft 555 kts 69°
2026-05-01 12:42 36.46605 121.68141 38969 ft 555 kts 69°
2026-05-01 12:43 36.48339 121.75806 38972 ft 555 kts 69°
2026-05-01 12:43 36.50769 121.86595 38971 ft 555 kts 69°
2026-05-01 12:44 36.52840 121.95829 38971 ft 554 kts 69°
2026-05-01 12:45 36.56612 122.12742 38954 ft 554 kts 69°
2026-05-01 12:45 36.58660 122.21975 38959 ft 553 kts 69°
2026-05-01 12:46 36.60697 122.31199 38965 ft 553 kts 69°
2026-05-01 12:46 36.62730 122.40440 38973 ft 553 kts 69°
2026-05-01 12:47 36.64751 122.49665 38968 ft 553 kts 69°
2026-05-01 12:47 36.66768 122.58905 38969 ft 553 kts 69°
2026-05-01 12:48 36.68777 122.68150 38971 ft 553 kts 70°
2026-05-01 12:48 36.70778 122.77397 38973 ft 553 kts 70°
2026-05-01 12:49 36.72772 122.86647 38968 ft 553 kts 70°
2026-05-01 12:49 36.74760 122.95909 38969 ft 553 kts 70°
2026-05-01 12:50 36.76744 123.05186 38972 ft 554 kts 70°
2026-05-01 12:50 36.78723 123.14483 38972 ft 555 kts 70°
2026-05-01 12:51 36.80698 123.23796 38969 ft 555 kts 70°
2026-05-01 12:52 36.84341 123.37379 38974 ft 541 kts 52°
2026-05-01 12:52 36.90289 123.49235 38969 ft 536 kts 49°
2026-05-01 12:53 36.96425 123.60866 38937 ft 536 kts 49°
2026-05-01 12:53 36.98458 123.64758 38421 ft 533 kts 49°
2026-05-01 12:54 37.00483 123.68646 37617 ft 535 kts 49°
2026-05-01 12:54 37.04547 123.76475 36274 ft 537 kts 49°
2026-05-01 12:54 37.06584 123.80408 35869 ft 539 kts 49°
2026-05-01 12:55 37.10653 123.88291 35028 ft 542 kts 49°
2026-05-01 12:55 37.12708 123.92271 34962 ft 545 kts 49°
2026-05-01 12:56 37.16072 124.00920 34962 ft 565 kts 68°
2026-05-01 12:56 37.16857 124.05790 34970 ft 574 kts 80°
2026-05-01 12:56 37.17215 124.10781 34962 ft 576 kts 82°
2026-05-01 12:57 37.17591 124.20830 34962 ft 579 kts 84°
2026-05-01 12:57 37.17844 124.30881 34300 ft 574 kts 84°
2026-05-01 12:57 37.17943 124.35906 33359 ft 578 kts 85°
2026-05-01 12:58 37.18041 124.40942 32427 ft 580 kts 85°
2026-05-01 12:58 37.18148 124.46000 31516 ft 581 kts 85°
2026-05-01 12:58 37.18257 124.51071 30626 ft 581 kts 85°
2026-05-01 12:59 37.18476 124.61200 28798 ft 578 kts 86°
2026-05-01 12:59 37.18582 124.66200 28092 ft 571 kts 86°
2026-05-01 12:59 37.18787 124.76014 26791 ft 555 kts 86°
2026-05-01 13:00 37.18983 124.85553 25583 ft 539 kts 85°
2026-05-01 13:00 37.19078 124.90205 25004 ft 532 kts 86°
2026-05-01 13:01 37.19253 124.99361 23836 ft 515 kts 86°
2026-05-01 13:01 37.19335 125.03808 22989 ft 506 kts 86°
2026-05-01 13:01 37.19495 125.12510 21086 ft 492 kts 86°
2026-05-01 13:02 37.19571 125.16763 20203 ft 484 kts 86°
2026-05-01 13:07 37.16993 125.88938 14218 ft 333 kts 101°
2026-05-01 13:07 37.16463 125.91753 13772 ft 331 kts 101°
2026-05-01 13:07 37.15934 125.94547 13255 ft 328 kts 101°
2026-05-01 13:08 37.15407 125.97314 12744 ft 326 kts 101°
2026-05-01 13:08 37.14883 126.00067 12226 ft 324 kts 101°
2026-05-01 13:08 37.14363 126.02798 11743 ft 321 kts 101°
2026-05-01 13:08 37.13846 126.05514 11268 ft 319 kts 101°
2026-05-01 13:09 37.13333 126.08205 10959 ft 318 kts 101°
2026-05-01 13:09 37.12823 126.10892 10587 ft 315 kts 101°
2026-05-01 13:09 37.12317 126.13552 10114 ft 313 kts 101°
2026-05-01 13:09 37.11812 126.16202 9613 ft 312 kts 101°
2026-05-01 13:10 37.11311 126.18837 9093 ft 310 kts 101°
2026-05-01 13:10 37.10815 126.21453 8587 ft 308 kts 101°
2026-05-01 13:10 37.10323 126.24051 8084 ft 306 kts 101°
2026-05-01 13:10 37.09831 126.26639 7589 ft 304 kts 101°
2026-05-01 13:11 37.09343 126.29207 7093 ft 302 kts 101°
2026-05-01 13:11 37.08859 126.31762 6624 ft 300 kts 101°
2026-05-01 13:11 37.08379 126.34293 6151 ft 298 kts 101°
2026-05-01 13:11 37.07905 126.36810 5670 ft 295 kts 101°
2026-05-01 13:12 37.07446 126.39293 5246 ft 291 kts 101°
2026-05-01 13:12 37.06998 126.41754 5029 ft 289 kts 101°
2026-05-01 13:12 37.06565 126.44214 4997 ft 289 kts 99°
2026-05-01 13:12 37.06367 126.46703 4993 ft 287 kts 84°
2026-05-01 13:13 37.06884 126.49065 4999 ft 280 kts 58°
2026-05-01 13:13 37.08040 126.50987 4908 ft 275 kts 43°
2026-05-01 13:13 37.09367 126.52704 4670 ft 274 kts 41°
2026-05-01 13:13 37.10715 126.54392 4452 ft 274 kts 41°
2026-05-01 13:14 37.12066 126.56078 4229 ft 274 kts 41°
2026-05-01 13:14 37.13411 126.57760 4032 ft 273 kts 41°
2026-05-01 13:14 37.14804 126.59374 3996 ft 271 kts 33°
2026-05-01 13:14 37.16412 126.60568 3795 ft 268 kts 22°
2026-05-01 13:15 37.18046 126.61560 3482 ft 266 kts 21°
2026-05-01 13:15 37.19746 126.62571 3158 ft 264 kts 21°
2026-05-01 13:15 37.21428 126.63479 2836 ft 261 kts 13°
2026-05-01 13:15 37.23197 126.63909 2428 ft 259 kts
2026-05-01 13:16 37.24941 126.64146 2430 ft 242 kts
2026-05-01 13:16 37.26546 126.64360 2282 ft 226 kts
2026-05-01 13:16 37.28097 126.64568 1865 ft 219 kts
2026-05-01 13:17 37.32003 126.63180 1596 ft 198 kts 300°
2026-05-01 13:17 37.32548 126.61723 1571 ft 168 kts 292°
2026-05-01 13:18 37.33263 126.59432 1566 ft 123 kts 291°
2026-05-01 13:18 37.33572 126.58450 1587 ft 122 kts 291°
2026-05-01 13:18 37.33877 126.57462 1596 ft 121 kts 291°
2026-05-01 13:18 37.34179 126.56463 1587 ft 119 kts 291°
2026-05-01 13:19 37.34465 126.55508 1599 ft 117 kts 291°
2026-05-01 13:19 37.34764 126.54559 1620 ft 117 kts 291°
2026-05-01 13:19 37.35472 126.52689 1652 ft 120 kts 300°
2026-05-01 13:20 37.36011 126.51865 1436 ft 128 kts 308°
2026-05-01 13:20 37.36614 126.51067 1262 ft 121 kts 309°
2026-05-01 13:20 37.37194 126.50327 1255 ft 119 kts 309°
2026-05-01 13:21 37.38423 126.48906 1262 ft 122 kts 316°
2026-05-01 13:21 37.39097 126.48263 1256 ft 122 kts 317°
2026-05-01 13:21 37.39797 126.47645 1145 ft 123 kts 319°
2026-05-01 13:21 37.40520 126.47032 833 ft 126 kts 320°
2026-05-01 13:22 37.41069 126.46546 666 ft 121 kts 318°
2026-05-01 13:22 37.41748 126.45930 520 ft 121 kts 318°
2026-05-01 13:22 37.42430 126.45302 380 ft 121 kts 319°
2026-05-01 13:22 37.43131 126.44681 301 ft 125 kts 320°
2026-05-01 13:23 37.43837 126.44048 151 ft 124 kts 319°
2026-05-01 13:23 37.44539 126.43418 44 ft 123 kts 321°
2026-05-01 13:23 37.45171 126.42855 38 ft 85 kts 326°
2026-05-01 13:23 37.45440 126.42621 38 ft 35 kts 325°
2026-05-01 13:24 37.45644 126.42471 37 ft 33 kts 341°
2026-05-01 13:24 37.45774 126.42432 37 ft 0 kts 350°
2026-05-01 13:24 37.45790 126.42436 37 ft 10 kts 14°
2026-05-01 13:25 37.45788 126.42572 38 ft 11 kts 136°
2026-05-01 13:25 37.45722 126.42637 38 ft 13 kts 142°
2026-05-01 13:25 37.45650 126.42703 38 ft 11 kts 135°
2026-05-01 13:25 37.45612 126.42772 38 ft 1 kts 102°
2026-05-01 13:26 37.45619 126.42790 39 ft 6 kts 60°
2026-05-01 13:26 37.45653 126.42842 39 ft 9 kts 51°
2026-05-01 13:26 37.45697 126.42914 40 ft 8 kts 54°
2026-05-01 13:26 37.45708 126.42932 40 ft 14 kts 54°
2026-05-01 13:27 37.45773 126.43047 39 ft 0 kts 54°
2026-05-01 13:27 37.45775 126.43051 39 ft 0 kts 54°
2026-05-01 13:28 37.45789 126.43074 39 ft 5 kts 54°
2026-05-01 13:28 37.45793 126.43081 39 ft 0 kts 49°
2026-05-01 13:29 37.45823 126.43212 39 ft 13 kts 58°
2026-05-01 13:29 37.45885 126.43324 38 ft 10 kts 51°
2026-05-01 13:30 37.46108 126.43234 38 ft 1 kts 48°
2026-05-01 13:31 37.46126 126.43268 38 ft 6 kts 56°
2026-05-01 13:31 37.46142 126.43298 38 ft 0 kts 55°